Location: Oberstdorf
(47.4188°N, 10.2969°E)
Time: 18:32:51
(UTC+01:00)

ISS - Pass Details

Date: 13 January 2018
Orbit: 402 x 407 km, 51.6° (Epoch: 19 January)

Event Time Altitude Azimuth Distance (km) Brightness Sun altitude
Exits shadow 07:06:35 11° 266° (W) 1,395 -1.7 -9.4°
Maximum altitude 07:08:46 19° 222° (SW) 1,031 -2.0 -9.0°
Drops below altitude 10° 07:11:11 10° 174° (S) 1,460 -0.6 -8.6°
Sets 07:13:38 0° 156° (SSE) 2,316 0.8 -8.3°
